Flag for U.S.A. Weather past 2 weeks in Urbana, Illinois, U.S.A.

Now
11 °F

Ice fog.


Feels Like: 1 °F
Forecast: 13 / 29 °F
Wind: 6 mph from North

Location: University Of Illinois-Willard Airport

Current Time: Mar 2, 2015 at 9:14:00 AM

Latest Report: Mar 2, 2015 at 8:04 AM


Visibility: 3 mi

Pressure: 30.52 "Hg

Humidity: 88%

Dew point: 8 °F

Location of UrbanaLocation

Historic Weather in Urbana — Graph

°F

Urbana temperature yesterday

Maximum temperature yesterday: 27 °F (at 2:53 PM)
Minimum temperature yesterday: 12 °F (at 11:53 PM)
Average temperature yesterday: 21 °F

Past Weeks' High & Low Weather Summary

 TemperatureHumidityPressure
High31 °F (Feb 21, 1:53 PM)96% (Mar 2, 6:53 AM)30.77 "Hg (Mar 2, 6:53 AM)
Low-12 °F (Feb 24, 2:53 AM)38% (Feb 17, 12:53 PM)29.88 "Hg (Feb 24, 2:53 PM)
Average14 °F70%30.29 "Hg
* Reported Feb 15 8:53 AM — Mar 2 8:04 AM, Urbana, Weather by CustomWeather, © 2015

Note: Actual official high and low records may vary slightly from our data, if they occured in-between our weather recording intervals... More about our weather records

Advertising

Urbana weather history for previous 24 hours

 ConditionsComfort  
Time TempWeatherWind HumidityBarometerVisibility
8:04 AM
Mon, Mar 2
11 °FIce fog.6 mph88%30.52 "Hg3 mi
6:53 AM9 °FIce fog.8 mph96%30.55 "Hg3 mi
5:53 AM10 °FIce fog.7 mph88%30.53 "Hg5 mi
4:53 AM11 °FIce fog.6 mph88%30.52 "Hg6 mi
3:53 AM14 °FIce fog.7 mph87%30.51 "Hg6 mi
2:53 AM13 °FClear.8 mph84%30.50 "Hg7 mi
1:53 AM12 °FClear.6 mph88%30.50 "Hg7 mi
12:53 AM12 °FClear.7 mph88%30.48 "Hg8 mi
11:53 PM
Sun, Mar 1
12 °FClear.6 mph88%30.47 "Hg8 mi
10:53 PM14 °FClear.7 mph87%30.46 "Hg7 mi
9:53 PM15 °FClear.8 mph87%30.46 "Hg8 mi
8:53 PM19 °FClear.10 mph85%30.42 "Hg9 mi
7:53 PM17 °FClear.10 mph88%30.40 "Hg8 mi
6:53 PM18 °FClear.5 mph88%30.37 "Hg7 mi
5:53 PM18 °FPassing clouds.5 mph88%30.37 "Hg7 mi
4:57 PM21 °FPartly sunny.6 mph85%30.32 "Hg9 mi
3:53 PM26 °FOvercast.7 mph77%30.34 "Hg9 mi
2:53 PM27 °FOvercast.8 mph81%30.35 "Hg9 mi
1:53 PM26 °FMore clouds than sun.9 mph84%30.35 "Hg9 mi
12:53 PM26 °FIce fog.8 mph84%30.36 "Hg3 mi
11:53 AM26 °FLight snow. Ice fog.No wind84%30.37 "Hg1 mi
10:53 AM24 °FLight snow. Ice fog.No wind91%30.39 "Hg1 mi
9:53 AM24 °FLight snow. Ice fog.No wind91%30.40 "Hg2 mi
Weather by CustomWeather, © 2015

See weather overviewHow to use our weather pages